Location: Lane
(33.5226°N, 79.8788°W)
Time: 10:08:47
(UTC+00:00)

Altair - Pass Details

Date: 06 October 2022
Orbit: 1501 x 1682 km, 47.2° (Epoch: 30 November)

Event Time Altitude Azimuth Distance (km) Brightness Sun altitude
Rises 13:20:01 0° 298° (WNW) 4,849 9.5 23.8°
Reaches altitude 10° 13:23:25 10° 306° (NW) 3,885 9.1 24.4°
Maximum altitude 13:32:45 42° 14° (NNE) 2,257 8.6 26.2°
Drops below altitude 10° 13:42:12 10° 83° (E) 3,943 10.6 27.9°
Sets 13:45:40 0° 90° (E) 4,928 11.1 28.5°
